Location: Unspecified
(0.0000°N, 0.0000°E)
Time: 07:58:26
(UTC+00:00)

Vanguard 2 Rocket - Pass Details

Date: 12 October 2022
Orbit: 555 x 3321 km, 32.9° (Epoch: 06 December)

Event Time Altitude Azimuth Distance (km) Brightness Sun altitude
Rises 13:14:36 0° 209° (SSW) 4,589 10.7 66.8°
Reaches altitude 10° 13:17:59 10° 196° (SSW) 3,991 10.5 66.0°
Maximum altitude 13:27:09 27° 142° (SE) 3,716 10.3 63.8°
Drops below altitude 10° 13:40:20 10° 92° (E) 5,872 10.8 60.6°
Sets 13:46:44 0° 82° (E) 7,162 11.2 59.1°
